Weather History for Big Bear City, CA

Change the Weather History Date:

Sunday, October 13, 2013

  Actual Average (KBUO) Record (KBUO)
Temperature  
Mean Temperature 42 °F -  
Max Temperature 53 °F 78 °F 93 °F (1999)
Min Temperature 30 °F 51 °F 42 °F (2000)
Degree Days  
Heating Degree Days 24    
Moisture  
Dew Point 23 °F    
Average Humidity 51    
Maximum Humidity 80    
Minimum Humidity 19    
Precipitation  
Precipitation 0.00 in - - ()
Sea Level Pressure  
Sea Level Pressure 30.08 in    
Wind  
Wind Speed 6 mph (WSW)    
Max Wind Speed 15 mph    
Max Gust Speed 20 mph    
Visibility 10 miles    
Events      
Averages and records for this station are not official NWS values.
T = Trace of Precipitation, MM = Missing Value Source: NWS Daily Summary

Daily Weather History Graph

Daily Weather History Graph

Search for Another Location

Airport:

Trip Planner

Search our weather history database for the weather conditions in past years. The results will help you decide how hot, cold, wet, or windy it might be!

Date:

Astronomy

Oct. 13, 2013 Rise Set
Actual Time 6:51 AM PDT 6:15 PM PDT
Civil Twilight 6:26 AM PDT 6:40 PM PDT
Nautical Twilight 5:57 AM PDT 7:09 PM PDT
Astronomical Twilight 5:27 AM PDT 7:38 PM PDT
Moon 2:57 PM PDT (10/13) 1:20 AM PDT (10/13)
Length of Visible Light 12h 14m
Length of Day
11h 23m
Waxing Gibbous, 70% of the Moon is Illuminated
Oct 13
Waxing Gibbous
Oct 18
Full
Oct 26
Last Quarter
Nov 3
New
Nov 9
First Quarter

Hourly Weather History & Observations

Time (PDT) Temp. Windchill Dew Point Humidity Pressure Visibility Wind Dir Wind Speed Gust Speed Precip Events Conditions
12:15 AM 41.0 °F 37.1 °F 32.0 °F 70% 30.07 in 10.0 mi West 5.8 mph - N/A   Clear
12:35 AM 39.2 °F 35.0 °F 32.0 °F 75% 30.07 in 10.0 mi WSW 5.8 mph - N/A   Clear
12:55 AM 39.2 °F 35.9 °F 32.0 °F 75% 30.07 in 10.0 mi WSW 4.6 mph - N/A   Clear
1:15 AM 39.2 °F 37.0 °F 30.2 °F 70% 30.06 in 10.0 mi WSW 3.5 mph - N/A   Clear
1:35 AM 39.2 °F 35.9 °F 30.2 °F 70% 30.06 in 10.0 mi SW 4.6 mph - N/A   Clear
1:55 AM 39.2 °F 35.9 °F 30.2 °F 70% 30.06 in 10.0 mi WSW 4.6 mph - N/A   Clear
2:15 AM 39.2 °F 34.2 °F 30.2 °F 70% 30.06 in 10.0 mi WSW 6.9 mph - N/A   Clear
2:35 AM 39.2 °F 37.0 °F 30.2 °F 70% 30.05 in 10.0 mi SW 3.5 mph - N/A   Clear
2:55 AM 39.2 °F 35.0 °F 28.4 °F 65% 30.05 in 10.0 mi WSW 5.8 mph - N/A   Clear
3:15 AM 37.4 °F 34.9 °F 28.4 °F 70% 30.03 in 10.0 mi WSW 3.5 mph - N/A   Clear
3:35 AM 39.2 °F 33.6 °F 26.6 °F 61% 30.03 in 10.0 mi WSW 8.1 mph - N/A   Clear
3:55 AM 41.0 °F 35.8 °F 26.6 °F 57% 30.03 in 10.0 mi West 8.1 mph - N/A   Clear
4:15 AM 39.2 °F 32.0 °F 26.6 °F 61% 30.03 in 10.0 mi West 11.5 mph - N/A   Clear
4:35 AM 41.0 °F 37.1 °F 23.0 °F 49% 30.03 in 10.0 mi WSW 5.8 mph - N/A   Clear
4:55 AM 37.4 °F 33.8 °F 26.6 °F 65% 30.03 in 10.0 mi West 4.6 mph - N/A   Clear
5:15 AM 37.4 °F 30.8 °F 28.4 °F 70% 30.03 in 10.0 mi West 9.2 mph - N/A   Clear
5:35 AM 39.2 °F 35.0 °F 21.2 °F 49% 30.03 in 10.0 mi WSW 5.8 mph - N/A   Clear
5:55 AM 37.4 °F 31.4 °F 26.6 °F 65% 30.03 in 10.0 mi WSW 8.1 mph - N/A   Clear
6:15 AM 37.4 °F 31.4 °F 24.8 °F 60% 30.04 in 10.0 mi WSW 8.1 mph - N/A   Clear
6:35 AM 37.4 °F 31.4 °F 24.8 °F 60% 30.04 in 10.0 mi WSW 8.1 mph - N/A   Clear
6:55 AM 37.4 °F 32.8 °F 23.0 °F 56% 30.04 in 10.0 mi WSW 5.8 mph - N/A   Clear
7:15 AM 39.2 °F 34.2 °F 21.2 °F 49% 30.05 in 10.0 mi WSW 6.9 mph - N/A   Clear
7:35 AM 41.0 °F 37.1 °F 19.4 °F 42% 30.05 in 10.0 mi WSW 5.8 mph - N/A   Clear
7:55 AM 42.8 °F 38.6 °F 17.6 °F 36% 30.06 in 10.0 mi WSW 6.9 mph - N/A   Clear
8:15 AM 42.8 °F 38.6 °F 17.6 °F 36% 30.06 in 10.0 mi WSW 6.9 mph - N/A   Clear
8:55 AM 44.6 °F 40.7 °F 17.6 °F 34% 30.08 in 10.0 mi West 6.9 mph - N/A   Clear
9:15 AM 46.4 °F 45.2 °F 14.0 °F 27% 30.07 in 10.0 mi WSW 3.5 mph - N/A   Clear
9:35 AM 50.0 °F - 14.0 °F 24% 30.06 in 10.0 mi WSW 5.8 mph - N/A   Clear
9:55 AM 50.0 °F - 15.8 °F 26% 30.06 in 10.0 mi West 8.1 mph - N/A   Clear
10:15 AM 51.8 °F - 12.2 °F 21% 30.06 in 10.0 mi WSW 8.1 mph 18.4 mph N/A   Clear
10:35 AM 53.6 °F - 12.2 °F 19% 30.07 in 10.0 mi West 9.2 mph - N/A   Clear
10:55 AM 53.6 °F - 12.2 °F 19% 30.07 in 10.0 mi West 6.9 mph - N/A   Clear
11:15 AM 53.6 °F - 14.0 °F 21% 30.07 in 10.0 mi West 10.4 mph - N/A   Clear
11:35 AM 53.6 °F - 17.6 °F 24% 30.07 in 10.0 mi West 8.1 mph - N/A   Clear
11:55 AM 53.6 °F - 17.6 °F 24% 30.07 in 10.0 mi West 11.5 mph - N/A   Clear
12:15 PM 53.6 °F - 15.8 °F 22% 30.07 in 10.0 mi West 15.0 mph 19.6 mph N/A   Clear
12:35 PM 53.6 °F - 14.0 °F 21% 30.06 in 10.0 mi WSW 11.5 mph 17.3 mph N/A   Clear
12:55 PM 53.6 °F - 17.6 °F 24% 30.06 in 10.0 mi West 12.7 mph - N/A   Clear
1:15 PM 53.6 °F - 17.6 °F 24% 30.06 in 10.0 mi WSW 9.2 mph 19.6 mph N/A   Clear
1:35 PM 53.6 °F - 19.4 °F 26% 30.06 in 10.0 mi West 10.4 mph - N/A   Clear
1:55 PM 53.6 °F - 19.4 °F 26% 30.06 in 10.0 mi West 10.4 mph 17.3 mph N/A   Clear
2:15 PM 53.6 °F - 19.4 °F 26% 30.06 in 10.0 mi WSW 10.4 mph 16.1 mph N/A   Clear
2:35 PM 53.6 °F - 19.4 °F 26% 30.06 in 10.0 mi West 10.4 mph - N/A   Clear
2:55 PM 53.6 °F - 21.2 °F 28% 30.06 in 10.0 mi WSW 6.9 mph - N/A   Clear
3:15 PM 53.6 °F - 19.4 °F 26% 30.06 in 10.0 mi West 10.4 mph - N/A   Clear
3:35 PM 53.6 °F - 19.4 °F 26% 30.06 in 10.0 mi WSW 5.8 mph - N/A   Clear
3:55 PM 53.6 °F - 19.4 °F 26% 30.06 in 10.0 mi West 9.2 mph - N/A   Clear
4:15 PM 53.6 °F - 21.2 °F 28% 30.07 in 10.0 mi West 8.1 mph - N/A   Clear
4:35 PM 51.8 °F - 23.0 °F 33% 30.07 in 10.0 mi SW 6.9 mph - N/A   Clear
4:55 PM 50.0 °F - 26.6 °F 40% 30.07 in 10.0 mi West 11.5 mph - N/A   Clear
5:15 PM 50.0 °F - 28.4 °F 43% 30.08 in 10.0 mi West 10.4 mph - N/A   Clear
5:35 PM 48.2 °F - 30.2 °F 50% 30.08 in 10.0 mi West 8.1 mph - N/A   Clear
5:55 PM 46.4 °F 42.9 °F 30.2 °F 53% 30.08 in 10.0 mi West 6.9 mph - N/A   Clear
6:15 PM 44.6 °F 42.2 °F 30.2 °F 57% 30.09 in 10.0 mi WSW 4.6 mph - N/A   Clear
6:35 PM 44.6 °F - 30.2 °F 57% 30.10 in 10.0 mi Calm Calm - N/A   Clear
6:55 PM 42.8 °F - 30.2 °F 61% 30.11 in 10.0 mi Calm Calm - N/A   Clear
7:15 PM 41.0 °F - 28.4 °F 61% 30.12 in 10.0 mi Calm Calm - N/A   Clear
7:35 PM 37.4 °F - 28.4 °F 70% 30.12 in 10.0 mi Calm Calm - N/A   Clear
7:55 PM 37.4 °F - 28.4 °F 70% 30.13 in 10.0 mi Calm Calm - N/A   Clear
8:15 PM 35.6 °F - 26.6 °F 70% 30.13 in 10.0 mi Calm Calm - N/A   Clear
8:35 PM 33.8 °F - 26.6 °F 75% 30.14 in 10.0 mi Calm Calm - N/A   Clear
8:55 PM 33.8 °F - 26.6 °F 75% 30.16 in 10.0 mi Calm Calm - N/A   Clear
9:15 PM 32.0 °F - 26.6 °F 80% 30.16 in 10.0 mi Calm Calm - N/A   Clear
9:35 PM 32.0 °F - 26.6 °F 80% 30.16 in 10.0 mi Calm Calm - N/A   Clear
9:55 PM 32.0 °F - 26.6 °F 80% 30.16 in 10.0 mi Calm Calm - N/A   Clear
10:15 PM 32.0 °F - 26.6 °F 80% 30.17 in 10.0 mi Calm Calm - N/A   Clear
10:35 PM 32.0 °F - 26.6 °F 80% 30.17 in 10.0 mi Calm Calm - N/A   Clear
10:55 PM 32.0 °F - 24.8 °F 75% 30.17 in 10.0 mi Calm Calm - N/A   Clear
11:15 PM 32.0 °F - 23.0 °F 69% 30.17 in 10.0 mi Calm Calm - N/A   Clear
11:35 PM 30.2 °F - 23.0 °F 75% 30.18 in 10.0 mi Calm Calm - N/A   Clear
11:55 PM 30.2 °F - 21.2 °F 69% 30.18 in 10.0 mi Calm Calm - N/A   Clear